Jackson, MN

6:31 AM CDT on March 29, 2017 (GMT -0500)
Jackson Municipal

Weather History for KMJQ - April, 2014

Change the Weather History Date:

Saturday, April 26, 2014

  Actual Average Record
Temperature  
Mean Temperature 50 °F -  
Max Temperature 62 °F 60 °F 75 °F (2001)
Min Temperature 39 °F 38 °F 26 °F (2002)
Degree Days  
Heating Degree Days 14    
Moisture  
Dew Point 35 °F    
Average Humidity 56    
Maximum Humidity 81    
Minimum Humidity 32    
Precipitation  
Precipitation 0.00 in - - ()
Sea Level Pressure  
Sea Level Pressure 29.83 in    
Wind  
Wind Speed 16 mph (East)    
Max Wind Speed 32 mph    
Max Gust Speed 38 mph    
Visibility 10 miles    
Events Thunderstorm    
Averages and records for this station are not official NWS values.
T = Trace of Precipitation, MM = Missing Value Source: NWS Daily Summary

Daily Weather History Graph

Daily Weather History Graph

Search for Another Location

Airport or City:

Trip Planner

Search our weather history database for the weather conditions in past years. The results will help you decide how hot, cold, wet, or windy it might be!

Date:

Astronomy

Apr. 26, 2014 Rise Set
Actual Time 6:19 AM CDT 8:16 PM CDT
Civil Twilight 5:48 AM CDT 8:47 PM CDT
Nautical Twilight 5:10 AM CDT 9:25 PM CDT
Astronomical Twilight 4:29 AM CDT 10:07 PM CDT
Moon 4:50 AM CDT (4/26) 5:41 PM CDT (4/26)
Length of Visible Light 14h 58m
Length of Day
13h 56m
Waning Crescent, 8% of the Moon is Illuminated
Apr 26
Waning Crescent
Apr 29
New
May 6
First Quarter
May 14
Full
May 21
Last Quarter

Hourly Weather History & Observations

Time (CDT) Temp. Windchill Dew Point Humidity Pressure Visibility Wind Dir Wind Speed Gust Speed Precip Events Conditions
12:12 AM 46.4 °F 41.9 °F 35.6 °F 66% 29.87 in 10.0 mi ENE 9.2 mph - N/A   Clear
12:32 AM 46.4 °F 41.5 °F 37.4 °F 71% 29.87 in 10.0 mi ENE 10.4 mph - N/A   Clear
12:52 AM 46.4 °F 41.9 °F 37.4 °F 71% 29.88 in 10.0 mi ENE 9.2 mph - N/A   Clear
1:12 AM 46.4 °F 41.9 °F 37.4 °F 71% 29.87 in 10.0 mi NE 9.2 mph - N/A   Clear
1:32 AM 46.4 °F 41.1 °F 37.4 °F 71% 29.87 in 10.0 mi ENE 11.5 mph - N/A   Clear
1:53 AM 46.4 °F 41.1 °F 37.4 °F 71% 29.87 in 10.0 mi ENE 11.5 mph - N/A   Clear
2:12 AM 48.2 °F - 37.4 °F 66% 29.87 in 10.0 mi ENE 13.8 mph - N/A   Clear
2:32 AM 46.4 °F 40.4 °F 37.4 °F 71% 29.88 in 10.0 mi ENE 13.8 mph - N/A   Clear
2:53 AM 46.4 °F 40.7 °F 37.4 °F 71% 29.88 in 10.0 mi East 12.7 mph - N/A   Clear
3:12 AM 44.6 °F 38.4 °F 37.4 °F 76% 29.88 in 10.0 mi ENE 12.7 mph - N/A   Clear
3:32 AM 44.6 °F 38.8 °F 37.4 °F 76% 29.88 in 10.0 mi ENE 11.5 mph - N/A   Clear
3:53 AM 42.8 °F 35.8 °F 37.4 °F 81% 29.88 in 10.0 mi ENE 13.8 mph - N/A   Clear
4:12 AM 42.8 °F 36.6 °F 35.6 °F 76% 29.88 in 10.0 mi ENE 11.5 mph - N/A   Clear
4:32 AM 42.8 °F 36.6 °F 35.6 °F 76% 29.88 in 10.0 mi ENE 11.5 mph - N/A   Clear
4:52 AM 42.8 °F 35.4 °F 35.6 °F 76% 29.88 in 10.0 mi ENE 15.0 mph - N/A   Clear
5:12 AM 41.0 °F 33.5 °F 35.6 °F 81% 29.88 in 10.0 mi ENE 13.8 mph - N/A   Clear
5:32 AM 41.0 °F 33.5 °F 35.6 °F 81% 29.89 in 10.0 mi ENE 13.8 mph - N/A   Clear
5:52 AM 41.0 °F 33.5 °F 33.8 °F 76% 29.88 in 10.0 mi ENE 13.8 mph - N/A   Clear
6:12 AM 39.2 °F 31.6 °F 33.8 °F 81% 29.88 in 10.0 mi ENE 12.7 mph - N/A   Clear
6:32 AM 39.2 °F 31.6 °F 33.8 °F 81% 29.89 in 10.0 mi East 12.7 mph - N/A   Clear
6:52 AM 39.2 °F 32.0 °F 33.8 °F 81% 29.91 in 10.0 mi East 11.5 mph - N/A   Clear
7:12 AM 39.2 °F 32.5 °F 33.8 °F 81% 29.92 in 10.0 mi East 10.4 mph - N/A   Clear
7:32 AM 41.0 °F 34.3 °F 33.8 °F 76% 29.91 in 10.0 mi East 11.5 mph - N/A   Clear
7:52 AM 41.0 °F 33.5 °F 33.8 °F 76% 29.91 in 10.0 mi East 13.8 mph - N/A   Clear
8:12 AM 42.8 °F 34.8 °F 33.8 °F 70% 29.91 in 10.0 mi East 17.3 mph - N/A   Clear
8:32 AM 42.8 °F 34.5 °F 33.8 °F 70% 29.91 in 10.0 mi East 18.4 mph 23.0 mph N/A   Clear
8:52 AM 44.6 °F 36.9 °F 33.8 °F 66% 29.90 in 10.0 mi East 18.4 mph - N/A   Clear
9:12 AM 44.6 °F 36.4 °F 33.8 °F 66% 29.89 in 10.0 mi East 20.7 mph - N/A   Scattered Clouds
9:32 AM 46.4 °F 39.5 °F 33.8 °F 62% 29.91 in 10.0 mi East 17.3 mph - N/A   Scattered Clouds
9:52 AM 46.4 °F 39.2 °F 33.8 °F 62% 29.92 in 10.0 mi East 18.4 mph - N/A   Clear
10:12 AM 48.2 °F - 33.8 °F 58% 29.91 in 10.0 mi East 19.6 mph - N/A   Scattered Clouds
10:32 AM 50.0 °F - 33.8 °F 54% 29.91 in 10.0 mi East 19.6 mph - N/A   Scattered Clouds
10:52 AM 50.0 °F - 33.8 °F 54% 29.90 in 10.0 mi East 19.6 mph 24.2 mph N/A   Clear
11:12 AM 51.8 °F - 35.6 °F 54% 29.89 in 10.0 mi East 19.6 mph 25.3 mph N/A   Clear
11:32 AM 53.6 °F - 35.6 °F 51% 29.87 in 10.0 mi East 23.0 mph 29.9 mph N/A   Clear
11:52 AM 53.6 °F - 35.6 °F 51% 29.87 in 10.0 mi East 20.7 mph 28.8 mph N/A   Clear
12:12 PM 53.6 °F - 35.6 °F 51% 29.87 in 10.0 mi East 20.7 mph 27.6 mph N/A   Clear
12:32 PM 55.4 °F - 35.6 °F 47% 29.86 in 10.0 mi East 21.9 mph - N/A   Clear
12:52 PM 57.2 °F - 33.8 °F 41% 29.86 in 10.0 mi East 23.0 mph 26.5 mph N/A   Clear
1:13 PM 59.0 °F - 33.8 °F 39% 29.84 in 10.0 mi East 21.9 mph 27.6 mph N/A   Clear
1:32 PM 60.8 °F - 33.8 °F 36% 29.83 in 10.0 mi East 24.2 mph 28.8 mph N/A   Clear
1:52 PM 60.8 °F - 32.0 °F 34% 29.82 in 10.0 mi East 26.5 mph 33.4 mph N/A   Clear
2:12 PM 60.8 °F - 32.0 °F 34% 29.80 in 10.0 mi East 27.6 mph 33.4 mph N/A   Clear
2:32 PM 60.8 °F - 32.0 °F 34% 29.80 in 10.0 mi East 24.2 mph 29.9 mph N/A   Clear
2:52 PM 62.6 °F - 32.0 °F 32% 29.79 in 10.0 mi East 28.8 mph 35.7 mph N/A   Clear
3:12 PM 62.6 °F - 32.0 °F 32% 29.79 in 10.0 mi East 25.3 mph 33.4 mph N/A   Clear
3:32 PM 62.6 °F - 32.0 °F 32% 29.78 in 10.0 mi East 26.5 mph 33.4 mph N/A   Scattered Clouds
3:52 PM 62.6 °F - 32.0 °F 32% 29.77 in 10.0 mi East 26.5 mph 32.2 mph N/A   Scattered Clouds
4:12 PM 62.6 °F - 33.8 °F 34% 29.76 in 10.0 mi East 28.8 mph 32.2 mph N/A   Mostly Cloudy
4:32 PM 62.6 °F - 32.0 °F 32% 29.75 in 10.0 mi East 27.6 mph 35.7 mph N/A   Scattered Clouds
4:52 PM 62.6 °F - 32.0 °F 32% 29.75 in 10.0 mi East 25.3 mph 35.7 mph N/A   Mostly Cloudy
5:12 PM 60.8 °F - 33.8 °F 36% 29.75 in 10.0 mi East 23.0 mph 33.4 mph N/A   Overcast
5:32 PM 60.8 °F - 33.8 °F 36% 29.74 in 10.0 mi East 23.0 mph 32.2 mph N/A   Overcast
5:52 PM 59.0 °F - 33.8 °F 39% 29.73 in 10.0 mi East 27.6 mph 34.5 mph N/A   Overcast
6:12 PM 59.0 °F - 33.8 °F 39% 29.73 in 10.0 mi East 29.9 mph 34.5 mph N/A   Overcast
6:32 PM 59.0 °F - 33.8 °F 39% 29.73 in 10.0 mi East 25.3 mph 32.2 mph N/A   Overcast
6:52 PM 59.0 °F - 33.8 °F 39% 29.73 in 10.0 mi East 24.2 mph 31.1 mph N/A Thunderstorm Overcast
7:12 PM 57.2 °F - 33.8 °F 41% 29.73 in 10.0 mi East 21.9 mph 32.2 mph N/A Thunderstorm Overcast
7:33 PM 55.4 °F - 33.8 °F 44% 29.73 in 10.0 mi East 24.2 mph 32.2 mph N/A   Mostly Cloudy
7:52 PM 55.4 °F - 33.8 °F 44% 29.73 in 10.0 mi East 23.0 mph 32.2 mph N/A   Scattered Clouds
8:12 PM 53.6 °F - 35.6 °F 51% 29.73 in 10.0 mi East 21.9 mph 27.6 mph N/A   Scattered Clouds
8:33 PM 53.6 °F - 35.6 °F 51% 29.74 in 10.0 mi East 19.6 mph 27.6 mph N/A   Overcast
8:52 PM 53.6 °F - 35.6 °F 51% 29.74 in 10.0 mi East 25.3 mph 28.8 mph N/A   Overcast
9:12 PM 53.6 °F - 35.6 °F 51% 29.75 in 10.0 mi East 21.9 mph 28.8 mph N/A   Overcast
9:33 PM 53.6 °F - 35.6 °F 51% 29.75 in 10.0 mi East 20.7 mph 26.5 mph N/A   Overcast
9:52 PM 51.8 °F - 35.6 °F 54% 29.75 in 10.0 mi East 20.7 mph 25.3 mph N/A   Overcast
10:12 PM 53.6 °F - 33.8 °F 47% 29.76 in 10.0 mi East 19.6 mph 31.1 mph N/A   Overcast
10:33 PM 51.8 °F - 33.8 °F 50% 29.76 in 10.0 mi East 19.6 mph 25.3 mph N/A   Overcast
10:52 PM 51.8 °F - 35.6 °F 54% 29.75 in 10.0 mi East 18.4 mph 25.3 mph N/A   Overcast
11:12 PM 51.8 °F - 35.6 °F 54% 29.75 in 10.0 mi East 19.6 mph 23.0 mph N/A   Overcast
11:33 PM 51.8 °F - 33.8 °F 50% 29.75 in 10.0 mi East 27.6 mph 35.7 mph N/A   Overcast
11:52 PM 51.8 °F - 33.8 °F 50% 29.74 in 10.0 mi East 32.2 mph 38.0 mph N/A   Overcast